Precipitable_Water
0.33 0.32 0.34 0.35 0.38 0.41 0.47 0.46 0.46 0.45 0.49 0.55 0.58 0.60 0.58 0.53 0.52 0.58 0.55 0.64 0.51 0.42 0.46 0.54 0.54 0.47 0.49 0.51 0.41 0.52 0.49 0.49 0.48 0.39 0.37 0.35 0.32 0.35 0.36 0.42 0.41 0.37 0.36 0.36 0.39 0.37 0.33 0.55 0.52 0.40 0.44 0.53 0.54 0.54
0.33 0.30 0.32 0.35 0.36 0.40 0.45 0.47 0.47 0.46 0.47 0.51 0.56 0.59 0.59 0.54 0.53 0.61 0.51 0.66 0.66 0.50 0.48 0.62 0.63 0.65 0.62 0.60 0.53 0.57 0.54 0.48 0.49 0.45 0.43 0.41 0.34 0.37 0.36 0.32 0.46 0.41 0.46 0.43 0.44 0.43 0.56 0.60 0.58 0.61 0.59 0.54 0.56 0.56
0.35 0.32 0.32 0.35 0.35 0.39 0.44 0.48 0.47 0.45 0.45 0.50 0.56 0.59 0.58 0.56 0.57 0.63 0.58 0.62 0.59 0.49 0.47 0.50 0.49 0.64 0.69 0.68 0.74 0.53 0.59 0.65 0.56 0.60 0.50 0.44 0.35 0.39 0.33 0.36 0.40 0.44 0.52 0.48 0.50 0.55 0.57 0.63 0.66 0.67 0.67 0.64 0.64 0.61
0.36 0.34 0.33 0.34 0.34 0.39 0.44 0.47 0.46 0.44 0.43 0.51 0.56 0.58 0.58 0.61 0.62 0.66 0.57 0.63 0.58 0.51 0.37 0.42 0.63 0.57 0.66 0.66 0.69 0.72 0.67 0.69 0.71 0.60 0.51 0.43 0.37 0.43 0.37 0.41 0.42 0.46 0.50 0.49 0.47 0.49 0.52 0.55 0.58 0.59 0.60 0.60 0.58 0.54
0.34 0.36 0.34 0.32 0.34 0.40 0.45 0.45 0.46 0.43 0.42 0.50 0.55 0.57 0.61 0.61 0.66 0.65 0.65 0.66 0.66 0.50 0.36 0.40 0.54 0.60 0.62 0.65 0.64 0.68 0.65 0.60 0.60 0.55 0.51 0.42 0.43 0.42 0.43 0.45 0.42 0.47 0.49 0.47 0.45 0.51 0.50 0.49 0.51 0.54 0.54 0.54 0.54 0.54
0.36 0.36 0.31 0.31 0.37 0.43 0.44 0.45 0.44 0.41 0.42 0.48 0.55 0.58 0.61 0.61 0.65 0.59 0.46 0.63 0.67 0.63 0.41 0.33 0.50 0.52 0.57 0.59 0.56 0.54 0.58 0.56 0.55 0.53 0.52 0.51 0.49 0.43 0.36 0.37 0.45 0.53 0.56 0.58 0.50 0.57 0.55 0.56 0.57 0.55 0.52 0.52 0.53 0.52
0.38 0.32 0.29 0.33 0.40 0.44 0.44 0.43 0.42 0.39 0.42 0.48 0.53 0.58 0.59 0.60 0.62 0.50 0.45 0.57 0.67 0.63 0.42 0.32 0.33 0.50 0.56 0.50 0.47 0.47 0.46 0.43 0.47 0.44 0.43 0.48 0.47 0.43 0.36 0.34 0.42 0.45 0.45 0.44 0.46 0.46 0.43 0.46 0.46 0.51 0.51 0.52 0.52 0.51
0.40 0.28 0.31 0.36 0.41 0.43 0.42 0.41 0.40 0.40 0.43 0.49 0.53 0.57 0.59 0.63 0.62 0.53 0.58 0.63 0.66 0.54 0.43 0.29 0.29 0.39 0.50 0.44 0.40 0.46 0.38 0.34 0.37 0.38 0.43 0.42 0.43 0.38 0.28 0.37 0.39 0.37 0.36 0.35 0.34 0.37 0.38 0.42 0.43 0.42 0.43 0.41 0.39 0.38
0.37 0.29 0.33 0.37 0.40 0.41 0.41 0.39 0.40 0.41 0.47 0.52 0.56 0.59 0.58 0.53 0.47 0.51 0.66 0.66 0.65 0.50 0.34 0.28 0.24 0.25 0.45 0.40 0.42 0.38 0.36 0.27 0.35 0.27 0.28 0.26 0.22 0.21 0.25 0.27 0.29 0.29 0.28 0.28 0.30 0.30 0.30 0.30 0.30 0.31 0.31 0.31 0.29 0.29
0.33 0.29 0.34 0.38 0.42 0.42 0.39 0.40 0.41 0.46 0.52 0.56 0.55 0.46 0.39 0.49 0.63 0.65 0.55 0.46 0.46 0.42 0.40 0.25 0.28 0.24 0.32 0.32 0.28 0.27 0.28 0.23 0.20 0.24 0.27 0.23 0.25 0.29 0.30 0.29 0.28 0.27 0.28 0.29 0.26 0.26 0.27 0.26 0.27 0.27 0.28 0.28 0.27 0.25
0.30 0.32 0.37 0.39 0.42 0.41 0.39 0.41 0.45 0.49 0.50 0.45 0.41 0.40 0.53 0.63 0.53 0.46 0.37 0.35 0.35 0.27 0.33 0.30 0.26 0.23 0.32 0.21 0.22 0.28 0.23 0.22 0.16 0.19 0.18 0.19 0.20 0.25 0.30 0.28 0.28 0.29 0.30 0.32 0.31 0.30 0.30 0.29 0.28 0.28 0.28 0.28 0.27 0.26
0.32 0.35 0.38 0.40 0.41 0.39 0.41 0.47 0.51 0.51 0.47 0.49 0.51 0.56 0.54 0.45 0.38 0.31 0.29 0.30 0.27 0.20 0.29 0.26 0.24 0.27 0.28 0.30 0.21 0.22 0.17 0.19 0.14 0.23 0.17 0.15 0.21 0.24 0.22 0.21 0.22 0.24 0.24 0.25 0.29 0.30 0.32 0.32 0.32 0.30 0.28 0.26 0.26 0.25
0.35 0.37 0.38 0.40 0.40 0.42 0.45 0.49 0.54 0.57 0.59 0.55 0.47 0.40 0.37 0.33 0.24 0.21 0.20 0.20 0.20 0.25 0.29 0.26 0.23 0.25 0.24 0.24 0.20 0.17 0.12 0.13 0.19 0.12 0.10 0.15 0.20 0.20 0.20 0.22 0.22 0.24 0.26 0.26 0.26 0.27 0.29 0.29 0.30 0.28 0.26 0.27 0.28 0.27
0.36 0.36 0.41 0.42 0.43 0.47 0.49 0.52 0.56 0.56 0.50 0.39 0.33 0.26 0.27 0.22 0.22 0.20 0.22 0.22 0.26 0.29 0.27 0.25 0.23 0.23 0.21 0.17 0.17 0.11 0.14 0.13 0.08 0.06 0.06 0.13 0.16 0.18 0.20 0.22 0.21 0.21 0.24 0.24 0.26 0.28 0.29 0.29 0.30 0.31 0.29 0.29 0.28 0.26
0.35 0.41 0.42 0.43 0.46 0.51 0.54 0.57 0.56 0.55 0.45 0.35 0.32 0.22 0.23 0.25 0.26 0.24 0.27 0.27 0.29 0.30 0.25 0.23 0.22 0.23 0.17 0.13 0.14 0.11 0.08 0.06 0.06 0.05 0.09 0.12 0.16 0.17 0.18 0.19 0.20 0.20 0.21 0.21 0.23 0.25 0.26 0.29 0.30 0.29 0.30 0.30 0.30 0.29
0.39 0.43 0.41 0.49 0.50 0.52 0.54 0.56 0.54 0.53 0.46 0.39 0.35 0.26 0.27 0.24 0.23 0.24 0.25 0.25 0.30 0.28 0.26 0.22 0.16 0.14 0.12 0.11 0.08 0.06 0.05 0.04 0.06 0.09 0.11 0.14 0.15 0.16 0.16 0.18 0.19 0.20 0.20 0.20 0.20 0.21 0.23 0.27 0.29 0.30 0.33 0.33 0.33 0.33
0.43 0.38 0.44 0.49 0.52 0.53 0.55 0.51 0.49 0.42 0.39 0.36 0.30 0.34 0.30 0.26 0.22 0.24 0.26 0.27 0.32 0.24 0.16 0.15 0.10 0.10 0.14 0.08 0.07 0.09 0.06 0.07 0.09 0.10 0.13 0.15 0.16 0.17 0.19 0.21 0.20 0.17 0.15 0.16 0.19 0.20 0.21 0.22 0.23 0.26 0.27 0.30 0.33 0.34
0.39 0.44 0.49 0.51 0.53 0.51 0.49 0.49 0.42 0.38 0.33 0.36 0.30 0.33 0.32 0.29 0.24 0.26 0.27 0.29 0.24 0.19 0.15 0.12 0.14 0.10 0.08 0.06 0.06 0.09 0.11 0.12 0.12 0.13 0.16 0.18 0.20 0.22 0.21 0.18 0.18 0.18 0.18 0.18 0.18 0.18 0.18 0.18 0.18 0.17 0.20 0.25 0.30 0.32
0.44 0.48 0.51 0.53 0.52 0.45 0.39 0.40 0.42 0.30 0.32 0.35 0.38 0.38 0.33 0.30 0.29 0.28 0.28 0.26 0.24 0.21 0.17 0.14 0.10 0.09 0.09 0.11 0.10 0.11 0.12 0.13 0.13 0.16 0.19 0.22 0.23 0.20 0.20 0.21 0.19 0.18 0.18 0.19 0.19 0.17 0.17 0.18 0.19 0.20 0.21 0.24 0.26 0.31
0.49 0.51 0.53 0.55 0.54 0.41 0.35 0.38 0.47 0.36 0.29 0.33 0.38 0.35 0.32 0.28 0.28 0.27 0.26 0.24 0.21 0.17 0.14 0.12 0.11 0.14 0.14 0.16 0.17 0.15 0.16 0.20 0.19 0.17 0.18 0.20 0.23 0.23 0.22 0.20 0.18 0.20 0.20 0.20 0.19 0.19 0.17 0.18 0.19 0.19 0.21 0.22 0.23 0.23
0.49 0.51 0.53 0.54 0.48 0.45 0.40 0.38 0.36 0.37 0.37 0.35 0.38 0.35 0.30 0.30 0.27 0.25 0.24 0.25 0.20 0.18 0.15 0.17 0.17 0.19 0.23 0.23 0.24 0.24 0.24 0.24 0.21 0.21 0.20 0.20 0.24 0.25 0.24 0.21 0.21 0.21 0.19 0.18 0.18 0.17 0.18 0.18 0.18 0.18 0.20 0.20 0.21 0.22
0.48 0.53 0.48 0.49 0.40 0.41 0.38 0.42 0.39 0.41 0.37 0.37 0.36 0.35 0.31 0.28 0.27 0.27 0.30 0.24 0.22 0.22 0.23 0.22 0.23 0.23 0.22 0.22 0.23 0.25 0.25 0.25 0.26 0.27 0.28 0.28 0.26 0.26 0.25 0.23 0.22 0.19 0.18 0.17 0.16 0.16 0.18 0.22 0.24 0.24 0.25 0.24 0.25 0.26
0.52 0.50 0.45 0.42 0.34 0.32 0.32 0.42 0.32 0.35 0.30 0.33 0.35 0.31 0.31 0.31 0.32 0.35 0.27 0.28 0.27 0.30 0.30 0.29 0.29 0.29 0.26 0.27 0.27 0.27 0.27 0.26 0.26 0.27 0.28 0.27 0.27 0.26 0.25 0.24 0.23 0.21 0.19 0.18 0.18 0.19 0.22 0.23 0.24 0.24 0.26 0.28 0.28 0.28
0.51 0.41 0.34 0.31 0.31 0.27 0.34 0.31 0.34 0.31 0.32 0.30 0.29 0.27 0.30 0.31 0.35 0.30 0.27 0.29 0.32 0.34 0.32 0.30 0.28 0.25 0.25 0.25 0.24 0.25 0.27 0.29 0.27 0.27 0.28 0.26 0.22 0.20 0.21 0.20 0.21 0.21 0.21 0.22 0.23 0.24 0.25 0.25 0.26 0.27 0.28 0.28 0.28 0.28
0.32 0.30 0.30 0.25 0.32 0.28 0.27 0.27 0.28 0.28 0.26 0.28 0.27 0.27 0.29 0.33 0.27 0.26 0.25 0.27 0.29 0.29 0.28 0.29 0.28 0.26 0.24 0.25 0.26 0.27 0.30 0.27 0.23 0.21 0.22 0.22 0.21 0.20 0.19 0.20 0.20 0.21 0.25 0.24 0.24 0.26 0.27 0.30 0.32 0.33 0.35 0.36 0.36 0.36
0.23 0.27 0.25 0.24 0.26 0.24 0.26 0.24 0.24 0.25 0.27 0.25 0.26 0.30 0.31 0.27 0.23 0.21 0.24 0.26 0.26 0.26 0.26 0.26 0.25 0.25 0.25 0.27 0.25 0.23 0.24 0.27 0.25 0.21 0.21 0.23 0.22 0.21 0.21 0.22 0.23 0.25 0.32 0.32 0.31 0.29 0.30 0.34 0.37 0.38 0.39 0.41 0.42 0.42
0.20 0.21 0.27 0.32 0.29 0.27 0.24 0.27 0.28 0.24 0.22 0.21 0.24 0.24 0.24 0.20 0.19 0.23 0.29 0.31 0.29 0.30 0.30 0.29 0.27 0.25 0.24 0.24 0.26 0.27 0.28 0.28 0.26 0.26 0.28 0.29 0.30 0.32 0.32 0.30 0.29 0.33 0.36 0.35 0.35 0.35 0.36 0.37 0.37 0.39 0.42 0.43 0.43 0.42
0.25 0.26 0.21 0.25 0.24 0.26 0.22 0.23 0.22 0.21 0.22 0.24 0.24 0.20 0.19 0.19 0.18 0.23 0.27 0.31 0.32 0.32 0.30 0.28 0.28 0.27 0.26 0.27 0.29 0.29 0.29 0.30 0.30 0.30 0.29 0.30 0.33 0.34 0.36 0.39 0.40 0.40 0.40 0.40 0.40 0.40 0.40 0.42 0.43 0.42 0.41 0.40 0.40 0.41
0.26 0.29 0.27 0.22 0.23 0.23 0.23 0.23 0.23 0.27 0.29 0.26 0.22 0.21 0.22 0.24 0.27 0.28 0.30 0.31 0.32 0.27 0.22 0.22 0.26 0.29 0.29 0.30 0.30 0.30 0.30 0.29 0.25 0.22 0.22 0.25 0.29 0.34 0.39 0.39 0.39 0.40 0.41 0.40 0.42 0.45 0.44 0.44 0.43 0.42 0.41 0.40 0.40 0.40
0.25 0.29 0.25 0.24 0.22 0.22 0.26 0.30 0.29 0.32 0.33 0.31 0.29 0.27 0.26 0.27 0.30 0.32 0.29 0.26 0.21 0.20 0.24 0.26 0.28 0.28 0.27 0.26 0.25 0.27 0.32 0.33 0.33 0.31 0.29 0.30 0.33 0.37 0.37 0.37 0.37 0.40 0.43 0.44 0.43 0.43 0.43 0.42 0.41 0.39 0.38 0.37 0.36 0.36
0.28 0.26 0.24 0.24 0.24 0.28 0.31 0.33 0.33 0.32 0.30 0.28 0.28 0.25 0.22 0.23 0.24 0.25 0.24 0.24 0.27 0.28 0.28 0.28 0.28 0.29 0.28 0.28 0.29 0.30 0.31 0.37 0.39 0.39 0.40 0.39 0.38 0.37 0.39 0.42 0.44 0.44 0.44 0.43 0.41 0.39 0.37 0.36 0.36 0.35 0.34 0.34 0.35 0.35
0.27 0.24 0.23 0.22 0.24 0.30 0.31 0.27 0.26 0.23 0.23 0.22 0.21 0.21 0.19 0.16 0.13 0.17 0.27 0.30 0.28 0.27 0.28 0.29 0.28 0.30 0.37 0.40 0.41 0.41 0.41 0.41 0.40 0.40 0.39 0.39 0.42 0.43 0.44 0.44 0.44 0.43 0.40 0.38 0.36 0.35 0.34 0.32 0.31 0.31 0.30 0.30 0.31 0.31
0.26 0.25 0.24 0.22 0.22 0.21 0.23 0.21 0.19 0.18 0.18 0.17 0.17 0.18 0.17 0.14 0.13 0.21 0.31 0.33 0.30 0.30 0.32 0.35 0.40 0.42 0.43 0.43 0.43 0.42 0.42 0.43 0.44 0.44 0.44 0.44 0.44 0.44 0.44 0.42 0.40 0.37 0.35 0.33 0.32 0.31 0.29 0.28 0.27 0.27 0.26 0.25 0.25 0.25
Wind_Speed
51 50 48 45 41 36 32 28 24 22 21 20 19 18 18 21 22 24 25 27 28 22 21 19 19 21 18 16 20 17 30 33 29 31 32 31 30 35 30 29 30 31 29 29 28 25 28 24 25 26 26 23 23 22
49 47 44 40 36 31 28 25 22 20 20 20 18 17 18 19 21 22 22 23 25 21 18 17 18 16 18 14 16 15 25 30 30 29 27 30 26 28 31 29 27 26 28 28 27 28 27 27 26 24 24 22 23 23
46 43 38 35 31 27 24 21 20 19 18 18 17 16 16 19 21 21 22 23 19 18 16 16 17 18 18 17 13 12 20 22 26 27 26 26 27 26 27 28 27 27 24 23 24 25 24 24 24 25 24 23 23 23
41 37 34 30 26 24 21 19 18 17 16 15 15 14 15 17 21 22 26 23 18 15 15 11 13 17 16 17 13 16 12 22 21 24 25 23 25 24 23 24 25 26 25 24 22 23 21 21 22 22 22 23 22 22
36 32 29 25 22 21 19 18 17 16 14 13 12 12 14 15 18 20 25 24 18 17 13 12 10 12 14 14 16 15 14 14 19 17 22 19 21 21 21 20 20 21 23 22 23 25 22 23 22 21 21 21 22 22
29 27 24 20 19 19 18 17 16 15 13 12 12 13 14 13 17 24 20 22 20 18 11 10 9 8 11 12 13 14 12 14 17 17 15 17 18 18 18 18 18 20 19 21 20 21 22 21 21 22 21 22 22 22
24 22 19 18 18 18 17 16 15 14 13 13 14 15 15 14 21 23 18 17 24 18 12 8 9 9 10 12 12 14 14 13 14 16 14 16 14 15 15 16 18 17 16 16 17 19 19 21 22 22 22 22 22 23
20 17 17 16 17 17 16 15 15 14 14 14 15 15 15 16 21 20 17 22 22 15 11 9 10 11 10 10 11 11 13 13 12 14 15 14 16 14 13 16 16 17 16 17 19 19 20 20 21 22 22 23 24 25
17 16 16 15 15 16 16 15 14 14 14 15 16 16 17 18 19 19 20 22 19 12 10 9 11 11 11 10 11 11 10 9 9 11 13 12 13 12 14 14 15 16 16 17 18 19 20 22 22 23 24 25 26 28
14 16 15 15 14 15 15 14 14 15 16 17 16 19 20 20 20 21 19 17 15 12 9 8 10 12 12 11 10 10 10 10 9 10 10 10 10 11 11 12 14 15 16 16 16 17 18 20 22 24 25 26 26 27
13 14 14 14 13 13 13 13 14 16 17 21 22 19 21 25 21 18 16 15 13 11 10 8 10 13 13 11 11 10 9 9 9 10 10 10 11 10 10 10 12 13 15 18 18 20 21 22 23 24 25 26 27 27
11 12 13 12 12 11 12 12 12 17 20 25 24 23 23 21 17 16 16 14 12 12 11 10 10 10 12 12 11 9 9 7 7 9 8 9 11 11 10 10 10 11 12 15 17 19 21 22 23 24 25 26 26 27
10 11 11 10 11 11 13 15 18 22 24 25 24 21 21 17 15 18 17 15 13 13 12 12 10 10 10 10 10 9 7 7 8 5 7 9 10 9 9 9 9 9 10 12 14 16 18 20 22 24 25 26 27 28
10 10 9 9 9 9 13 20 27 27 23 22 22 21 19 17 16 14 15 14 11 11 14 13 11 10 11 10 10 9 8 6 4 5 7 8 9 8 8 9 10 11 13 15 16 17 19 21 22 22 23 25 27 29
10 9 10 10 10 11 19 26 29 25 21 20 19 18 18 17 13 12 12 13 12 15 16 14 11 12 12 12 10 10 7 5 3 4 5 7 7 6 6 7 9 10 12 15 17 19 20 21 23 25 26 27 28 28
10 10 12 11 15 19 22 23 25 22 20 18 17 17 15 14 11 11 13 14 16 19 18 14 14 14 12 12 10 8 8 4 3 3 4 4 3 4 7 8 10 12 13 16 17 19 21 23 25 27 28 29 30 30
10 14 14 14 18 23 23 19 23 19 16 17 16 14 13 12 13 15 16 17 23 22 18 16 14 12 12 9 8 7 5 5 5 4 2 1 2 4 6 9 11 13 15 17 17 18 20 21 23 25 26 29 30 32
14 15 14 16 23 24 23 17 18 18 15 16 15 11 11 12 16 19 20 23 22 19 16 13 12 10 10 9 7 6 6 4 3 1 1 2 5 7 9 12 14 16 17 18 18 20 21 22 23 24 26 28 29 30
15 16 17 21 23 22 20 17 15 17 19 19 13 11 12 14 17 21 22 20 19 18 15 11 9 8 7 7 7 7 5 4 2 3 5 7 9 11 14 16 17 18 19 20 21 22 24 25 26 27 28 29 30 31
18 21 22 23 22 19 18 14 16 17 18 17 15 13 14 15 19 20 22 18 17 15 11 9 8 7 8 7 7 6 6 6 5 7 9 12 14 16 18 18 20 21 22 23 24 25 26 27 27 28 29 29 30 30
22 23 24 23 20 17 14 16 15 16 18 17 16 16 15 16 18 18 18 17 14 13 11 11 10 8 7 7 6 6 7 9 10 11 13 16 18 19 21 22 23 24 25 26 26 28 28 28 29 29 29 29 30 29
24 24 21 20 18 15 13 13 15 16 16 17 15 15 15 15 15 15 16 14 13 13 13 12 11 11 11 10 10 11 12 14 16 17 19 20 22 23 23 25 26 27 28 29 30 31 31 31 31 31 32 32 30 29
25 21 17 16 15 13 13 14 15 14 15 16 15 15 14 14 15 14 13 13 13 13 14 14 14 15 15 15 15 15 17 19 19 21 23 24 25 26 27 28 29 30 31 33 33 33 32 32 32 31 31 29 29 28
22 16 15 14 13 12 13 13 15 15 15 15 15 14 14 14 14 13 13 12 13 14 15 16 16 16 16 16 17 18 20 20 21 22 24 26 28 29 31 32 33 34 35 36 34 33 33 33 32 31 30 30 30 30
18 14 13 13 12 12 11 12 12 12 14 16 15 15 14 14 13 13 13 13 14 15 16 16 16 16 17 17 18 19 19 21 23 25 27 30 33 34 35 35 36 36 36 34 33 32 32 31 31 30 31 31 31 32
15 14 13 15 13 12 12 12 12 12 13 11 12 13 13 12 11 12 11 12 12 12 13 13 14 14 16 17 18 20 22 24 27 29 31 32 34 37 38 37 35 32 30 30 30 31 31 31 30 31 32 32 32 33
12 14 15 14 13 12 10 10 11 10 9 10 11 10 9 9 11 11 11 12 10 10 10 11 13 15 17 19 21 23 26 28 30 32 35 36 37 36 34 32 30 29 29 28 29 30 29 29 29 30 30 30 29 29
10 13 15 14 12 11 11 11 11 11 10 10 10 9 10 10 9 9 10 10 10 11 13 14 16 17 19 21 23 26 29 31 34 35 36 34 32 31 29 26 26 27 27 27 26 26 26 27 27 27 26 25 25 24
10 13 13 12 12 11 9 9 10 9 9 10 9 8 8 8 7 7 9 11 13 15 16 17 18 19 21 24 27 30 32 33 34 32 30 27 24 21 22 23 23 23 23 23 24 24 23 22 22 22 21 20 20 20
9 11 11 11 10 10 10 9 8 9 9 8 8 7 7 8 8 10 11 12 13 13 14 16 19 23 26 29 31 32 31 28 25 22 21 20 21 22 23 22 21 20 20 20 19 19 18 18 17 16 16 16 16 16
11 10 10 9 9 9 9 9 9 8 7 7 7 7 8 8 8 9 10 11 12 15 18 21 24 26 28 28 27 25 23 20 18 18 18 19 20 20 17 17 17 16 16 16 15 14 14 14 13 13 14 14 14 14
12 11 11 9 9 9 7 7 7 7 6 6 6 6 7 8 9 11 12 14 16 18 20 22 22 23 23 21 20 18 17 16 16 16 16 14 13 13 13 12 12 12 12 12 12 12 12 12 13 13 13 14 13 13
11 11 11 10 8 7 7 6 5 5 5 5 6 7 8 10 12 12 12 13 15 16 17 20 21 19 16 14 13 12 12 12 10 10 10 9 9 9 9 9 9 10 10 11 12 12 13 13 13 14 14 14 14 14
Wind_Direction
296 295 294 292 289 286 286 282 278 274 268 277 276 268 251 235 228 221 221 219 212 219 232 228 230 230 224 230 219 223 205 213 211 211 213 218 219 219 220 224 225 224 224 229 232 234 242 241 241 237 246 245 237 240
294 295 292 290 284 279 279 274 268 270 270 272 270 265 247 228 221 211 213 211 208 219 221 228 227 223 217 219 221 224 207 206 210 209 215 214 219 217 217 222 226 227 228 227 232 236 243 243 241 243 242 239 241 243
293 292 290 286 279 270 270 265 262 268 271 269 265 258 237 222 215 213 205 195 200 209 219 227 225 221 219 221 225 218 204 203 207 208 209 214 215 219 219 223 223 226 229 231 232 239 241 242 241 241 242 245 245 246
290 288 286 280 271 259 257 260 258 265 269 267 259 244 228 216 209 211 200 196 202 202 211 215 226 221 229 226 227 212 204 201 201 206 210 214 216 220 220 222 225 230 228 227 235 235 236 242 241 240 241 241 246 251
287 282 281 271 260 248 248 253 253 263 263 260 243 225 213 212 201 198 194 197 199 198 207 221 227 227 229 224 218 209 209 198 193 195 206 208 214 214 219 221 225 229 225 229 235 233 237 235 236 237 239 243 245 248
282 280 271 256 244 241 245 244 249 257 254 245 224 212 205 208 206 189 192 200 202 199 208 212 214 221 215 211 202 199 197 197 199 200 195 206 211 212 214 222 228 226 229 228 232 229 233 231 235 242 243 246 250 252
275 274 252 241 237 237 239 243 248 248 245 230 220 212 206 197 187 189 193 194 188 192 204 207 209 202 201 204 205 204 204 205 200 201 205 206 211 213 215 219 214 219 227 232 228 228 235 239 241 243 245 248 251 256
268 257 236 234 237 233 237 242 244 241 232 224 211 204 201 201 185 189 189 178 179 188 200 204 210 196 193 192 198 199 204 206 209 211 212 216 217 223 224 216 222 229 232 235 239 242 241 239 242 246 249 252 256 260
249 236 230 234 236 232 235 241 239 231 223 212 200 194 179 174 175 178 174 173 180 193 197 203 195 196 194 194 189 190 189 186 197 197 204 208 217 221 219 225 230 235 237 240 244 244 243 244 245 248 252 257 261 264
237 227 229 231 233 230 234 236 230 219 206 194 192 182 182 178 170 165 169 178 188 196 201 201 197 195 190 191 191 194 201 202 199 207 204 208 215 216 221 227 233 236 239 238 242 244 246 249 250 253 257 261 265 268
225 224 222 224 229 227 229 225 219 212 199 184 178 178 173 169 169 172 175 181 189 193 194 189 188 187 191 189 187 196 196 204 209 212 210 216 218 222 231 239 248 252 249 248 253 252 251 255 255 258 262 264 266 269
220 216 215 220 221 222 215 205 195 180 176 173 170 163 163 167 174 178 186 189 193 197 192 186 183 181 190 190 192 197 193 203 202 203 212 217 218 222 237 251 261 263 260 255 256 256 257 258 259 261 263 266 268 271
212 208 210 215 215 216 207 200 183 169 161 164 167 170 171 174 177 183 189 197 198 194 195 191 188 188 185 189 186 186 192 198 179 206 213 218 215 229 242 252 263 268 268 266 267 266 264 265 265 265 266 269 270 273
203 200 199 199 201 205 198 179 170 164 165 167 171 172 177 182 190 191 194 192 194 194 183 179 179 181 177 172 176 173 175 177 195 209 223 215 216 227 244 259 268 273 273 274 274 274 273 272 270 270 270 272 274 276
189 190 190 189 178 158 158 158 162 164 166 168 171 176 181 186 190 193 189 187 187 172 165 161 158 157 156 151 151 144 141 135 171 199 203 205 215 235 256 270 276 282 284 283 282 280 279 276 274 275 276 277 277 278
182 179 166 157 158 156 156 155 162 165 167 167 170 170 178 181 181 182 175 171 170 163 157 152 149 148 150 150 145 143 132 138 118 137 153 167 209 255 272 279 285 290 293 293 291 287 285 282 280 278 279 278 277 277
178 171 167 167 164 161 158 158 165 161 164 170 169 172 175 173 173 168 163 160 157 153 151 148 144 149 150 149 152 151 152 133 123 108 120 189 279 299 300 300 299 299 300 300 298 297 294 292 289 286 284 283 281 280
172 169 167 165 162 159 162 156 163 171 168 169 168 162 163 167 163 160 156 154 155 156 154 155 151 154 161 164 176 176 166 154 144 116 43 310 308 307 308 308 308 306 304 303 302 300 299 298 296 293 292 290 287 284
171 167 160 156 159 160 163 162 162 171 177 171 161 160 159 160 160 160 159 160 160 162 160 162 160 168 172 174 177 178 184 200 234 280 301 314 308 307 309 310 310 310 307 303 302 302 301 299 297 297 296 294 291 289
171 166 161 157 157 157 161 164 163 164 165 166 165 161 158 157 161 163 165 167 169 171 174 179 182 187 186 187 192 204 221 237 265 290 300 306 307 305 306 307 309 310 310 307 304 303 303 302 300 299 298 297 296 294
161 161 161 159 158 155 158 164 166 164 166 162 162 160 158 158 162 167 172 177 179 186 191 195 196 198 198 207 218 232 247 258 273 285 295 303 307 306 305 306 307 309 308 307 305 304 304 302 300 299 299 298 298 294
157 156 159 169 169 167 161 163 162 164 168 170 168 168 165 168 172 177 182 188 196 201 205 211 219 221 231 241 250 257 266 271 280 288 295 299 303 305 305 304 306 307 306 306 305 303 303 301 300 298 298 297 295 292
158 159 158 163 168 175 180 178 176 173 169 176 176 175 180 182 187 189 195 205 212 215 221 231 240 244 249 255 262 267 272 277 283 290 295 298 300 303 304 304 304 304 304 304 304 302 301 301 301 300 299 297 294 292
162 161 164 169 169 170 174 178 180 182 183 185 186 187 193 196 199 205 211 218 224 229 236 244 247 252 260 264 267 272 276 280 285 291 296 299 301 303 304 304 304 304 302 302 302 301 301 301 300 298 297 296 295 293
163 170 168 169 170 170 170 175 181 185 189 194 198 205 207 207 212 221 228 237 241 244 247 250 252 256 264 271 274 276 280 283 288 293 298 299 301 303 303 303 303 303 302 300 300 300 301 301 300 299 298 297 296 295
170 176 171 174 174 168 174 173 177 177 179 189 199 205 211 215 221 232 233 236 239 245 251 251 255 263 270 272 276 281 285 290 293 295 299 301 303 303 303 304 304 304 302 302 302 302 303 302 301 300 300 299 298 297
176 183 179 178 180 179 178 179 178 181 187 192 197 199 205 215 230 236 238 239 241 246 252 259 265 271 277 281 283 287 291 293 294 296 299 301 303 302 302 302 303 303 305 305 305 304 304 304 305 305 305 304 304 303
173 177 180 186 182 184 180 185 192 197 198 197 192 203 205 217 230 235 234 235 245 258 268 274 278 283 286 287 290 293 296 297 298 299 300 301 302 303 302 303 304 305 306 306 307 308 308 309 309 310 311 312 314 314
169 175 174 178 184 184 183 186 193 196 197 195 197 209 219 224 228 236 247 259 267 274 277 281 285 288 290 293 296 299 300 300 301 302 303 304 306 307 309 310 310 310 311 312 313 313 314 315 316 317 319 322 326 328
160 163 166 176 179 187 189 187 185 185 191 198 208 214 227 241 255 268 273 276 279 282 285 289 293 296 298 300 301 301 302 301 300 300 303 306 308 309 311 312 314 315 317 318 320 322 324 326 328 331 334 337 341 345
173 167 164 166 169 176 184 192 196 199 204 210 223 229 247 261 267 276 282 285 287 291 296 299 300 301 303 304 304 303 302 302 301 302 305 307 310 313 317 319 322 325 328 331 334 337 341 344 347 348 351 354 355 358
175 172 168 169 175 177 174 182 192 199 213 219 236 248 264 274 280 284 288 293 297 300 303 305 306 307 308 307 307 307 305 305 307 308 311 316 320 324 329 333 338 343 349 354 357 360 4 7 7 8 8 9 10 11
178 185 184 178 177 182 190 185 191 209 218 231 254 266 276 284 284 288 295 301 306 310 313 314 315 314 315 317 320 323 323 322 324 326 329 335 342 348 354 -0 6 10 13 16 17 17 18 19 19 19 20 20 20 19